Tiempo cada hora Daknisa

Hoy, 18 Junio, Viernes

Tiempo Temperatura Precipitaciones Viento Presión Humedad
00:00 +20°C° 0.1 mm 2 mps 686 mmHg 80%
01:00 +19°C° 0 mm 2 mps 686 mmHg 80%
02:00 +19°C° 0 mm 2 mps 686 mmHg 81%
03:00 +20°C° 0 mm 1 mps 687 mmHg 82%
04:00 +21°C° 0 mm 1 mps 687 mmHg 79%
05:00 +22°C° 0 mm 1 mps 687 mmHg 75%
06:00 +21°C° 0 mm 0 mps 687 mmHg 72%
07:00 +24°C° 0 mm 1 mps 687 mmHg 67%
08:00 +25°C° 0 mm 2 mps 687 mmHg 62%
09:00 +27°C° 0 mm 3 mps 688 mmHg 58%
10:00 +27°C° 0.1 mm 3 mps 688 mmHg 59%
11:00 +27°C° 0.1 mm 3 mps 688 mmHg 60%
12:00 +27°C° 0.1 mm 3 mps 688 mmHg 62%
13:00 +26°C° 0.7 mm 3 mps 688 mmHg 63%
14:00 +26°C° 0.7 mm 2 mps 688 mmHg 65%
15:00 +26°C° 0.7 mm 2 mps 688 mmHg 67%
16:00 +25°C° 0.4 mm 2 mps 688 mmHg 68%
17:00 +25°C° 0.4 mm 1 mps 688 mmHg 69%
18:00 +25°C° 0.4 mm 1 mps 688 mmHg 70%
19:00 +23°C° 0.2 mm 1 mps 688 mmHg 73%
20:00 +22°C° 0.2 mm 1 mps 688 mmHg 75%
21:00 +20°C° 0.2 mm 2 mps 688 mmHg 78%
22:00 +20°C° 0 mm 2 mps 688 mmHg 77%
23:00 +20°C° 0 mm 2 mps 688 mmHg 76%

Mañana, 19 Junio, Sábado

Tiempo Temperatura Precipitaciones Viento Presión Humedad
00:00 +20°C° 0 mm 2 mps 688 mmHg 74%
01:00 +19°C° 0 mm 2 mps 688 mmHg 74%
02:00 +19°C° 0 mm 2 mps 688 mmHg 73%
03:00 +19°C° 0 mm 2 mps 688 mmHg 72%
04:00 +20°C° 0 mm 2 mps 688 mmHg 70%
05:00 +21°C° 0 mm 2 mps 688 mmHg 67%
06:00 +23°C° 0 mm 1 mps 689 mmHg 65%
07:00 +25°C° 0 mm 2 mps 689 mmHg 58%
08:00 +27°C° 0 mm 2 mps 689 mmHg 52%
09:00 +29°C° 0 mm 3 mps 689 mmHg 45%
10:00 +29°C° 0 mm 3 mps 689 mmHg 43%
11:00 +30°C° 0 mm 4 mps 689 mmHg 41%
12:00 +32°C° 0 mm 4 mps 689 mmHg 39%
13:00 +32°C° 0 mm 4 mps 688 mmHg 40%
14:00 +30°C° 0 mm 4 mps 688 mmHg 42%
15:00 +30°C° 0 mm 4 mps 688 mmHg 43%
16:00 +29°C° 0 mm 3 mps 688 mmHg 48%
17:00 +28°C° 0 mm 2 mps 688 mmHg 52%
18:00 +27°C° 0 mm 2 mps 688 mmHg 57%
19:00 +26°C° 0 mm 2 mps 688 mmHg 59%
20:00 +24°C° 0 mm 2 mps 688 mmHg 60%
21:00 +21°C° 0 mm 2 mps 688 mmHg 62%
22:00 +21°C° 0 mm 2 mps 687 mmHg 60%
23:00 +21°C° 0 mm 3 mps 687 mmHg 57%

Pasado mañana, 20 Junio, Domingo

Tiempo Temperatura Precipitaciones Viento Presión Humedad
00:00 +21°C° 0 mm 3 mps 687 mmHg 54%
01:00 +21°C° 0 mm 3 mps 687 mmHg 51%
02:00 +21°C° 0 mm 3 mps 687 mmHg 48%
03:00 +21°C° 0 mm 3 mps 687 mmHg 46%
04:00 +21°C° 0 mm 3 mps 687 mmHg 46%
05:00 +23°C° 0 mm 2 mps 687 mmHg 46%
06:00 +24°C° 0 mm 2 mps 687 mmHg 46%
07:00 +26°C° 0 mm 2 mps 687 mmHg 41%
08:00 +28°C° 0 mm 3 mps 687 mmHg 35%
09:00 +30°C° 0 mm 3 mps 687 mmHg 30%
10:00 +32°C° 0 mm 4 mps 687 mmHg 31%
11:00 +32°C° 0 mm 4 mps 687 mmHg 32%
12:00 +33°C° 0 mm 4 mps 687 mmHg 33%
13:00 +33°C° 0 mm 4 mps 687 mmHg 35%
14:00 +32°C° 0 mm 4 mps 687 mmHg 37%
15:00 +32°C° 0 mm 4 mps 687 mmHg 40%
16:00 +30°C° 0 mm 4 mps 687 mmHg 44%
17:00 +28°C° 0 mm 3 mps 687 mmHg 49%
18:00 +27°C° 0 mm 2 mps 687 mmHg 53%
19:00 +25°C° 0 mm 2 mps 687 mmHg 55%
20:00 +24°C° 0 mm 2 mps 687 mmHg 57%
21:00 +21°C° 0 mm 2 mps 687 mmHg 59%
22:00 +21°C° 0 mm 2 mps 687 mmHg 57%
23:00 +21°C° 0 mm 2 mps 686 mmHg 55%

21 Junio, Lunes

Tiempo Temperatura Precipitaciones Viento Presión Humedad
00:00 +21°C° 0 mm 2 mps 686 mmHg 54%
01:00 +20°C° 0 mm 2 mps 686 mmHg 52%
02:00 +20°C° 0 mm 2 mps 686 mmHg 51%
03:00 +20°C° 0 mm 2 mps 686 mmHg 50%
04:00 +21°C° 0 mm 2 mps 686 mmHg 50%
05:00 +23°C° 0 mm 2 mps 686 mmHg 50%
06:00 +24°C° 0 mm 2 mps 687 mmHg 51%
07:00 +26°C° 0 mm 2 mps 687 mmHg 45%
08:00 +28°C° 0 mm 2 mps 687 mmHg 40%
09:00 +30°C° 0 mm 3 mps 687 mmHg 35%
10:00 +30°C° 0 mm 4 mps 687 mmHg 34%
11:00 +32°C° 0 mm 4 mps 687 mmHg 32%
12:00 +33°C° 0 mm 5 mps 687 mmHg 31%
13:00 +33°C° 0 mm 5 mps 687 mmHg 31%
14:00 +33°C° 0 mm 5 mps 687 mmHg 30%
15:00 +33°C° 0 mm 5 mps 687 mmHg 30%
16:00 +30°C° 0 mm 4 mps 686 mmHg 34%
17:00 +29°C° 0 mm 3 mps 686 mmHg 38%
18:00 +28°C° 0 mm 2 mps 686 mmHg 42%
19:00 +26°C° 0 mm 2 mps 686 mmHg 43%
20:00 +24°C° 0 mm 2 mps 686 mmHg 44%
21:00 +21°C° 0 mm 2 mps 686 mmHg 45%
22:00 +21°C° 0 mm 2 mps 685 mmHg 44%
23:00 +21°C° 0 mm 2 mps 685 mmHg 43%

22 Junio, Martes

Tiempo Temperatura Precipitaciones Viento Presión Humedad
00:00 +21°C° 0 mm 2 mps 685 mmHg 43%
01:00 +21°C° 0 mm 2 mps 685 mmHg 41%
02:00 +21°C° 0 mm 2 mps 685 mmHg 40%
03:00 +21°C° 0 mm 2 mps 685 mmHg 39%
04:00 +23°C° 0 mm 2 mps 685 mmHg 40%
05:00 +24°C° 0 mm 2 mps 686 mmHg 42%
06:00 +25°C° 0 mm 1 mps 686 mmHg 44%
07:00 +27°C° 0 mm 2 mps 686 mmHg 40%
08:00 +28°C° 0 mm 2 mps 686 mmHg 36%
09:00 +30°C° 0 mm 2 mps 686 mmHg 32%
10:00 +31°C° 0 mm 2 mps 687 mmHg 30%
11:00 +33°C° 0 mm 3 mps 687 mmHg 29%
12:00 +34°C° 0 mm 3 mps 687 mmHg 28%
13:00 +34°C° 0 mm 4 mps 687 mmHg 28%
14:00 +34°C° 0 mm 4 mps 687 mmHg 27%
15:00 +33°C° 0 mm 4 mps 687 mmHg 27%
16:00 +31°C° 0 mm 3 mps 687 mmHg 32%
17:00 +30°C° 0 mm 3 mps 687 mmHg 37%
18:00 +29°C° 0 mm 2 mps 686 mmHg 42%
19:00 +27°C° 0 mm 2 mps 686 mmHg 44%
20:00 +25°C° 0 mm 2 mps 686 mmHg 46%
21:00 +23°C° 0 mm 2 mps 686 mmHg 48%
22:00 +23°C° 0 mm 2 mps 686 mmHg 48%
23:00 +21°C° 0 mm 2 mps 686 mmHg 47%

23 Junio, Miércoles

Tiempo Temperatura Precipitaciones Viento Presión Humedad
00:00 +21°C° 0 mm 2 mps 686 mmHg 47%
01:00 +21°C° 0 mm 2 mps 686 mmHg 46%
02:00 +21°C° 0 mm 2 mps 686 mmHg 46%
03:00 +21°C° 0 mm 2 mps 686 mmHg 45%
04:00 +23°C° 0 mm 2 mps 687 mmHg 45%
05:00 +24°C° 0 mm 2 mps 687 mmHg 45%
06:00 +26°C° 0 mm 1 mps 687 mmHg 45%
07:00 +28°C° 0 mm 2 mps 688 mmHg 40%
08:00 +29°C° 0 mm 2 mps 688 mmHg 34%
09:00 +31°C° 0 mm 3 mps 688 mmHg 28%
10:00 +33°C° 0 mm 3 mps 688 mmHg 27%
11:00 +34°C° 0 mm 3 mps 688 mmHg 26%
12:00 +35°C° 0 mm 4 mps 688 mmHg 25%
13:00 +34°C° 0 mm 4 mps 688 mmHg 25%
14:00 +34°C° 0 mm 4 mps 688 mmHg 26%
15:00 +34°C° 0 mm 4 mps 688 mmHg 26%
16:00 +33°C° 0 mm 3 mps 688 mmHg 32%
17:00 +30°C° 0 mm 2 mps 688 mmHg 38%
18:00 +29°C° 0 mm 2 mps 688 mmHg 44%
19:00 +27°C° 0 mm 2 mps 688 mmHg 45%
20:00 +25°C° 0 mm 2 mps 688 mmHg 46%
21:00 +24°C° 0 mm 2 mps 688 mmHg 48%
22:00 +23°C° 0 mm 2 mps 688 mmHg 47%
23:00 +23°C° 0 mm 2 mps 688 mmHg 47%
Mostrar más

Necesitamos Su Consentimiento

Meteoprog y nuestros Proveedores de Servicios pueden almacenar y acceder a sus datos personales como cookies, identificadores de dispositivo u otras tecnologías similares de su dispositivo y procesar dichos datos para personalizar contenido y anuncios, además de ofrecer funciones de redes sociales y analizar el tráfico.

  • Almacenar y/o acceder a información en su dispositivo

    Se puede almacenar o acceder a cookies, identificadores de dispositivo u otra información de su dispositivo para los fines anteriormente indicados.

  • Anuncios y contenido personalizados, medición de anuncios y contenido, percepciones del público, y desarrollo de productos

    Los anuncios y el contenido pueden personalizarse en base a su perfil. Se pueden añadir más datos para personalizar mejor los anuncios y contenidos. Se puede medir el rendimiento de los anuncios y contenidos. Se puede obtener la percepción sobre el público que ha visto los anuncios y contenidos. Dichos datos pueden usarse para desarrollar o mejorar la experiencia del usuario, sistemas y software.

Al hacer clic en ‘Estoy De Acuerdo’ usted permitirá el uso de las cookies, identificadores de dispositivo, balizas web u otras tecnologías similares indicadas. Su configuración puede cambiarse desde el navegador de su dispositivo.

Para ciertos fines, los intereses legítimos pueden ser considerados por encima del consentimiento. Puede leer más sobre ello en nuestra Política de Privacidad y Cookies.